{"data":{"norad_id":65658,"intl_designator":"2025-211G","name":"STARLINK-35282","alt_names":[],"object_type":"PAYLOAD","status":"ACTIVE","operator":null,"country":"US","launch_date":"2025-09-19","launch_site_code":"AFWTR","launch_vehicle":null,"mission":null,"orbit_class":"UNKNOWN","rcs_meters":null,"size_class":null,"mass_kg":null,"dimensions":null,"purposes":["comms"],"wikipedia_slug":null,"has_3d_model":false,"image_url":null,"decayed_at":null,"tle_current":{"epoch":"2026-05-25T03:11:09.625056Z","epoch_age_seconds":63644,"freshness":"FRESH","line1":"1 65658U 25211G   26145.13275029  .00004929  00000+0  34542-3 0  9992","line2":"2 65658  97.4490 189.0388 0000939 146.5772 213.5514 15.05654257 38546","mean_motion":15.05654257,"eccentricity":9.39e-5,"inclination_deg":97.449,"raan_deg":189.0388,"arg_perigee_deg":146.5772,"mean_anomaly_deg":213.5514,"bstar":0.00034542,"rev_number":3854,"period_min":95.639486509286,"perigee_km":548.84759120889,"apogee_km":550.14860107995,"semimajor_km":6927.6350961444,"source":"CELESTRAK","updated_at":"2026-05-25T13:38:20.889052Z"}}}